This demonstration page uses our WeatherBlox Daily Observations layout. Learn more.

Left ArrowRight Arrow

39.08367, -84.50855

Hourly Observations for December 23, 2015

Temp ( °F °C ) Dew Point ( °F °C ) Humidity (%) Winds ( mph kmh ) Pressure ( in mb ) Visibility ( mi km ) Precip ( " mm )
12:53 am 00:53 Cloudy 49 9.4 48 8.9 97 97 WSW 5 7 29.84 1011 9 14 0.00 0.00
1:42 am 01:42 Cloudy with Light Rain 50 10 50 10 100 100 WSW 3 6 29.85 1011 8 13 0.00 0.03
1:53 am 01:53 Cloudy 50 10 50 10 100 100 W 3 6 29.83 1010 10 16 0.00 0.03
2:10 am 02:10 Cloudy 54 12 54 12 100 100 SW 3 6 29.85 1011 10 16 0.00 0.00
2:53 am 02:53 Mostly Clear 53 11.7 53 11.7 100 100 WSW 5 7 29.82 1010 10 16 0.01 0.25
3:53 am 03:53 Partly Cloudy 53 11.7 53 11.7 100 100 SW 3 6 29.81 1010 7 11 0.00 0.00
4:53 am 04:53 Mostly Cloudy 55 12.8 54 12.2 96 96 Calm 29.79 1009 10 16 0.00 0.00
5:07 am 05:07 Cloudy 54 12.2 54 12.2 100 100 Calm 29.83 1010 10 16 0.00 0.00
5:53 am 05:53 Mostly Cloudy 55 12.8 55 12.8 100 100 Calm 29.78 1008 10 16 0.00 0.00
6:19 am 06:19 Cloudy 55 12.8 55 12.8 100 100 Calm 29.77 1008 10 16 0.00 0.00
6:53 am 06:53 Cloudy with Light Rain 58 14.4 57 13.9 97 97 S 10 17 29.78 1008 7 11 0.01 0.25
7:05 am 07:05 Cloudy with Light Rain 59 15 57 13.9 93 93 S 7 11 29.77 1008 10 16 0.00 0.03
7:23 am 07:23 Cloudy 59 15 58 14.4 96 96 S 8 13 29.77 1008 10 16 0.00 0.03
7:53 am 07:53 Cloudy 59 15 58 14.4 96 96 SSE 8 13 29.75 1008 10 16 0.00 0.03
8:08 am 08:08 Mostly Cloudy with Light Rain 59 15 57 14 94 94 S 6 9 29.74 1007 10 16 0.00 0.00
8:53 am 08:53 Mostly Cloudy 60 15.6 58 14.4 93 93 S 8 13 29.75 1007 10 16 0.00 0.03
9:53 am 09:53 Cloudy 61 16.1 59 15 93 93 S 9 15 29.74 1007 10 16 0.00 0.00
10:53 am 10:53 Mostly Cloudy 62 16.7 59 15 90 90 SSE 10 17 29.71 1006 10 16 0.00 0.00
11:26 am 11:26 Mostly Cloudy 63 17 59 15 88 88 SSE 10 17 29.68 1005 10 16 0.00 0.00
11:53 am 11:53 Mostly Cloudy 63 17.2 59 15 87 87 S 9 15 29.66 1005 10 16 0.00 0.00
12:20 pm 12:20 Mostly Cloudy 64 17.8 60 15.6 87 87 S 13 20 29.65 1004 10 16 0.00 0.00
12:53 pm 12:53 Cloudy 64 17.8 59 15 84 84 S 17 28 29.64 1004 10 16 0.00 0.00
1:53 pm 13:53 Cloudy 65 18.3 59 15 81 81 S 13 20 29.58 1002 10 16 0.00 0.00
2:53 pm 14:53 Cloudy 66 18.9 59 15 78 78 S 17 28 29.54 1000 10 16 0.00 0.00
3:44 pm 15:44 Cloudy 64 18 59 15 83 83 S 15 24 29.56 1001 10 16 0.00 0.00
3:53 pm 15:53 Cloudy 65 18.3 59 15 81 81 S 15 24 29.53 1000 10 16 0.00 0.03
4:53 pm 16:53 Partly Cloudy 66 18.9 59 15 78 78 SSW 14 22 29.51 999 10 16 0.00 0.00
5:53 pm 17:53 Cloudy 65 18.3 58 14.4 78 78 W 13 20 29.56 1001 10 16 0.00 0.00
6:16 pm 18:16 Cloudy with Heavy Rain 57 14 55 13 94 94 W 13 20 29.59 1002 3 4 0.00 0.00
6:24 pm 18:24 Cloudy with Light Rain 56 13.3 55 12.8 97 97 W 6 9 29.56 1001 4 6 0.11 2.79
6:29 pm 18:29 Cloudy with Rain 56 13.3 55 12.8 97 97 VRB 6 9 29.56 1001 2 3 0.22 5.59
6:38 pm 18:38 Cloudy with Rain 55 13 55 13 100 100 S 5 7 29.56 1001 3 5 0.00 0.00
6:53 pm 18:53 Cloudy with Light Rain 56 13.3 55 12.8 97 97 Calm 29.56 1001 10 16 0.24 6.10
7:37 pm 19:37 Cloudy with Thunderstorms 56 13.3 56 13.3 100 100 N 5 7 29.56 1001 10 16 0.05 1.27
7:53 pm 19:53 Cloudy with Thunderstorms 56 13.3 56 13.3 100 100 NW 9 15 29.59 1002 5 8 0.05 1.27
8:26 pm 20:26 Cloudy with Thunderstorms 55 13 55 13 100 100 S 10 17 29.59 1002 3 5 0.00 0.00
8:53 pm 20:53 Cloudy with Thunderstorms 56 13.3 56 13.3 100 100 SSE 5 7 29.54 1000 4 6 0.68 17.27
9:24 pm 21:24 Cloudy with Rain 55 13 55 13 100 100 S 12 19 29.56 1001 5 8 0.00 0.00
9:53 pm 21:53 Partly Cloudy with Light Rain 56 13.3 56 13.3 100 100 S 14 22 29.51 999 10 16 0.13 3.30
10:53 pm 22:53 Clear 57 13.9 56 13.3 96 96 S 13 20 29.56 1001 10 16 0.00 0.03
11:53 pm 23:53 Mostly Clear 57 13.9 55 12.8 93 93 SSW 6 9 29.59 1002 10 16 0.00 0.00

Powered by AerisWeather